User: anonymous   Login
Location: Unspecified
(0.0000°N, 0.0000°E)
Time: 18:59:27
(UTC+00:00)
Language:

DNEPR OBJECT AB - Orbit

View from above orbital plane
View from above orbital plane
View from above satellite
View from above satellite

Ground track
Ground track

The orbit data is extracted from the following two-line orbital elements,

1 39441U 13066AB  17084.65290950 +.00000193 +00000-0 +34903-4 0  9999
2 39441 097.6365 119.5751 0081441 213.6654 145.9368 14.74573173178513
Epoch (UTC): 25 March 2017 15:40:11
Eccentricity: 0.0081441
inclination: 97.6365°
perigee height: 589 km
apogee height: 704 km
right ascension of ascending node: 119.5751°
argument of perigee: 213.6654°
revolutions per day: 14.74573173
mean anomaly at epoch: 145.9368°
orbit number at epoch: 17851

The dashed part of the orbit path shows where the satellite is in the earth's shadow,  

DLR